Lapse_Rate
9.3 9.0 9.0 8.3 8.3 8.9 9.1 8.4 8.0 8.2 8.7 9.1 8.1 8.1 8.2 8.0 6.0 6.2 7.0 7.6 7.6 7.8 7.1 6.8 6.2 5.1 5.7 6.4 6.6 6.0 6.7 8.8 8.4 9.0 8.5 7.9 6.9 6.8 6.5 6.3 6.6 6.5 6.5 7.0 7.2 7.2 6.9
9.2 9.1 8.9 8.7 8.0 8.9 9.0 8.4 8.0 8.1 8.2 8.2 8.1 7.8 8.2 7.1 6.5 6.3 6.7 7.2 7.0 7.3 7.3 6.4 5.5 5.9 6.1 6.6 5.9 4.8 5.8 9.3 9.3 8.7 8.4 8.1 7.4 7.4 6.4 6.4 6.5 6.6 6.7 6.7 7.0 6.9 7.0
8.8 9.2 9.0 8.6 7.8 8.2 8.5 8.3 8.0 8.0 8.5 8.4 7.8 7.6 7.6 7.0 6.7 6.3 7.7 7.3 7.5 7.2 6.8 7.2 6.3 6.7 6.4 6.6 4.8 4.5 4.9 9.0 9.1 8.9 8.0 7.6 7.1 7.3 7.0 6.5 7.3 6.9 6.5 6.5 6.3 6.7 6.6
8.7 8.8 8.8 7.8 7.4 8.2 8.2 8.1 8.0 8.0 8.3 7.8 7.0 7.4 7.6 6.6 6.2 7.6 7.4 7.4 7.4 7.2 7.6 8.1 8.6 6.7 6.6 5.9 5.5 5.2 9.0 9.1 8.4 8.3 7.6 7.8 7.4 7.0 6.9 7.0 6.8 6.5 6.5 6.5 6.5 6.5 6.5
7.5 8.4 8.1 7.9 7.9 7.9 8.6 8.0 7.9 8.0 7.8 7.8 6.6 7.3 7.7 7.3 7.3 7.1 7.5 7.8 7.9 8.4 8.1 8.7 7.4 6.7 6.8 6.5 6.7 6.8 7.6 8.6 8.8 8.2 8.2 8.3 7.7 7.1 7.1 6.5 6.5 6.5 6.5 6.5 6.5 6.5 6.5
7.0 7.3 7.5 7.5 7.0 6.8 7.9 8.1 7.8 8.0 8.0 7.6 7.2 7.3 7.3 7.3 7.4 7.2 7.8 7.7 7.8 7.6 9.2 9.1 8.3 6.6 7.0 6.6 6.1 7.1 9.5 9.1 8.3 7.4 7.1 7.3 6.7 6.5 6.5 6.5 6.5 6.5 6.5 6.5 6.5 6.5 6.5
6.3 6.2 6.5 6.4 6.1 6.1 6.5 6.9 7.2 7.2 7.0 7.2 7.0 7.0 7.0 7.3 7.5 7.7 7.7 8.2 7.7 7.3 7.2 6.9 7.2 7.3 6.9 6.2 7.0 8.4 9.0 8.5 8.2 7.3 6.5 6.8 6.5 6.5 6.5 6.5 6.5 6.5 6.5 6.5 6.5 6.5 6.5
5.7 6.8 6.1 6.0 5.7 5.6 5.8 6.1 6.4 6.5 6.4 6.3 6.4 6.9 6.9 7.3 7.7 7.6 8.4 8.0 7.5 7.0 6.6 7.3 7.7 7.2 7.0 6.6 7.3 8.1 8.8 7.3 6.9 6.5 6.5 6.5 6.5 6.5 6.5 6.5 6.5 6.5 6.5 6.5 6.5 6.5 6.5
5.0 5.4 5.4 5.5 5.5 5.2 5.3 5.6 5.8 5.6 5.6 5.8 5.9 5.7 5.9 7.0 7.3 6.8 6.0 6.8 8.3 8.9 6.8 6.9 6.6 6.5 6.3 6.6 7.2 7.4 7.8 7.1 6.5 6.5 6.5 6.5 6.5 6.6 6.5 6.5 6.5 6.5 6.5 6.5 6.5 6.5 6.5
5.1 4.7 5.1 4.6 4.9 4.8 5.0 5.0 5.3 5.1 4.8 4.9 5.3 5.3 5.2 5.3 6.3 7.4 6.3 6.8 6.8 7.5 6.5 6.5 6.8 7.1 7.3 8.0 6.8 8.5 8.2 7.2 6.6 6.5 6.5 6.5 6.6 6.5 6.5 6.5 6.5 6.5 6.5 6.5 6.5 6.5 6.5
4.9 4.9 4.5 4.5 4.2 4.4 4.4 4.7 4.6 4.8 4.4 4.8 5.0 5.1 4.8 5.1 7.5 7.6 6.4 6.4 6.6 7.0 6.5 6.5 6.8 8.2 7.3 7.0 7.2 7.3 8.1 7.3 6.5 6.5 6.5 6.5 6.5 6.5 6.5 6.5 6.5 6.5 6.5 6.5 6.5 6.5 6.5
4.5 4.2 4.4 4.1 4.1 3.7 3.8 3.9 4.0 4.1 4.4 4.0 4.0 4.4 4.7 7.3 7.4 6.4 6.3 6.2 6.4 6.5 6.5 6.5 6.8 6.5 6.6 6.9 6.9 7.4 7.4 7.8 7.4 6.5 6.5 6.5 6.9 6.5 6.5 6.5 6.5 6.5 6.5 6.5 6.5 6.5 6.5
3.1 3.6 3.9 3.8 3.9 3.4 3.1 3.3 3.2 3.4 3.6 3.6 3.8 4.1 5.9 6.8 6.3 5.6 5.3 6.0 6.5 6.5 6.5 6.5 6.5 6.5 6.5 6.5 6.5 6.5 6.5 6.5 6.5 6.5 6.5 6.5 6.5 6.5 6.7 6.5 6.5 6.5 6.5 6.5 6.5 6.5 6.5
2.7 2.7 2.9 3.5 3.1 3.5 2.9 2.8 2.9 2.6 2.6 2.5 2.8 3.1 5.1 6.2 5.1 4.4 5.1 6.5 6.5 6.5 6.5 6.5 6.5 6.5 6.5 6.5 6.5 6.5 6.5 6.5 6.5 6.5 6.5 6.5 6.5 6.5 6.5 6.5 6.5 6.5 6.5 6.5 6.5 6.5 6.5
2.2 2.5 2.6 2.5 3.0 2.6 2.8 2.6 2.6 2.3 1.7 1.6 1.6 4.8 6.8 5.5 4.3 4.5 6.1 6.5 6.5 6.5 6.5 6.5 6.5 6.5 6.5 6.5 6.5 6.5 6.5 6.5 6.5 6.5 6.5 6.5 6.5 6.5 6.5 6.5 6.5 6.5 6.5 6.5 6.5 6.5 6.5
2.2 2.3 2.5 2.5 2.1 2.2 2.1 2.5 2.0 1.9 1.6 1.1 4.5 6.2 5.2 4.9 4.2 3.8 6.4 6.5 6.5 6.6 6.6 6.5 6.5 6.5 6.5 6.5 6.5 6.5 6.5 6.5 6.5 6.6 6.4 6.5 6.5 6.5 6.5 6.6 6.6 6.5 6.5 6.5 6.5 6.5 6.5
2.2 1.9 2.4 2.4 1.7 1.6 1.7 2.0 2.1 1.6 1.3 1.1 3.2 6.3 4.8 4.0 3.3 6.1 6.5 6.5 6.5 7.1 7.0 6.5 6.5 6.5 6.5 6.5 6.5 6.5 6.5 6.5 6.5 6.5 6.5 6.5 6.5 6.5 6.5 6.5 6.5 6.5 6.5 6.5 6.5 6.5 6.5
2.2 2.2 1.9 2.3 1.7 1.2 1.2 1.5 1.7 1.6 0.8 1.9 4.6 6.3 4.6 3.6 5.8 5.7 6.5 6.5 5.5 6.7 7.2 6.6 6.6 6.5 6.5 6.5 6.5 6.5 6.5 6.5 6.9 6.7 6.5 6.5 6.5 6.5 6.5 6.5 6.5 6.5 6.5 6.5 6.5 6.5 6.5
1.8 2.3 2.1 1.7 2.3 1.5 1.1 1.1 1.3 1.7 1.6 1.2 6.0 5.8 5.0 4.5 6.5 6.5 6.6 6.5 6.8 6.5 6.5 6.5 6.5 6.5 6.5 6.5 6.5 6.5 6.5 6.6 6.8 6.5 6.5 6.5 6.5 6.5 6.5 6.5 6.5 6.5 6.5 6.5 6.5 6.5 6.5
2.6 2.6 2.4 1.9 1.6 2.4 1.6 1.2 1.1 1.5 1.8 1.6 5.4 6.5 4.2 6.0 6.0 6.5 6.5 6.5 6.5 6.7 6.7 6.8 6.5 6.6 6.5 6.5 6.5 6.5 6.5 6.5 6.8 6.7 6.4 6.4 6.5 6.5 6.5 6.5 6.5 6.5 6.5 6.5 6.5 6.5 6.5
2.2 3.2 3.1 2.4 2.0 1.6 2.2 1.6 1.3 1.3 1.3 1.7 5.3 6.1 5.6 6.5 6.3 6.4 6.5 6.5 6.5 6.5 6.7 6.9 6.5 6.5 6.5 6.5 6.5 6.5 6.5 6.5 6.5 6.3 6.6 6.5 6.5 6.5 6.5 6.5 6.5 6.5 6.5 6.5 6.5 6.5 6.5
3.2 3.6 3.7 4.2 3.0 2.1 2.0 2.0 1.1 1.4 1.5 3.4 5.9 6.1 5.2 6.2 6.8 6.5 6.5 6.5 6.5 6.5 6.5 6.5 6.5 6.5 6.5 6.5 6.5 6.5 6.5 6.5 6.5 6.4 6.5 6.4 6.5 6.5 6.5 6.5 6.5 6.5 6.5 6.5 6.5 6.5 6.5
4.5 4.2 4.2 4.9 5.1 3.8 2.5 2.3 1.7 1.4 1.4 4.9 4.4 5.0 5.1 5.3 6.3 6.5 6.5 6.5 6.5 6.5 6.5 6.9 6.5 6.5 6.5 6.5 6.2 6.0 6.0 5.7 6.0 6.5 6.5 6.5 6.5 6.5 6.5 6.5 6.5 6.5 6.5 6.5 6.5 6.5 6.5
4.1 4.0 4.2 5.0 5.1 4.7 3.8 3.1 2.5 2.1 1.7 3.6 4.7 5.5 6.0 6.5 6.5 6.5 6.5 6.7 6.5 6.4 6.5 6.8 6.9 6.5 6.6 6.7 6.0 5.7 5.7 6.1 5.9 6.0 5.7 6.5 6.5 6.5 6.5 6.5 6.5 6.5 6.5 6.5 6.5 6.5 6.5
4.1 4.0 4.1 4.9 4.9 4.8 4.4 3.8 3.4 2.9 2.5 3.6 4.0 4.7 6.1 6.5 5.9 6.3 6.4 6.4 6.6 6.5 6.5 6.5 6.7 6.9 6.5 6.4 6.5 6.5 6.5 6.5 6.5 6.5 6.5 6.1 6.5 6.5 6.5 6.5 6.5 6.5 6.5 6.5 6.5 6.5 6.5
4.2 4.5 4.3 4.5 4.5 4.3 4.4 4.3 4.1 3.9 3.3 3.4 4.0 3.3 5.2 6.0 6.3 7.0 6.4 6.2 6.5 6.5 6.5 6.3 6.7 6.4 6.7 6.2 6.5 6.5 6.5 6.5 6.5 6.5 6.5 6.5 6.5 6.5 6.5 6.5 6.5 6.5 6.5 6.6 6.5 6.5 6.5
4.2 4.6 4.7 4.7 4.7 4.5 4.3 4.4 4.4 4.4 4.2 3.6 4.2 3.6 4.8 5.9 6.2 6.3 6.2 6.4 6.3 6.1 6.5 6.3 6.3 6.4 6.9 6.5 6.5 6.5 6.5 6.5 6.5 6.5 6.5 6.5 6.5 6.5 6.5 6.5 6.5 6.5 6.2 6.4 6.5 6.5 5.9
4.2 4.6 4.9 4.8 4.5 4.7 4.4 4.4 4.3 4.7 4.7 4.4 4.4 4.2 4.6 5.9 5.7 5.3 5.7 5.3 5.3 5.3 6.5 5.8 6.3 6.3 6.2 6.5 6.5 6.5 6.5 6.5 6.5 6.5 6.5 6.5 6.5 6.5 6.5 6.5 6.5 5.4 6.3 6.5 6.1 5.9 6.0
4.6 4.6 4.7 4.9 4.7 4.7 4.5 4.4 4.4 4.7 5.2 5.0 5.1 4.5 4.6 5.0 5.5 4.6 5.4 5.1 5.8 5.8 5.7 5.5 6.0 6.1 5.2 6.5 6.5 6.5 6.5 6.5 6.5 6.5 6.5 6.5 6.5 6.5 6.5 6.5 5.9 4.3 4.4 4.0 4.5 4.7 5.5
Wind_Speed
24 25 26 28 30 32 34 35 34 31 29 29 27 24 22 21 19 23 21 19 17 14 13 20 25 21 5 7 5 12 15 9 4 3 6 5 6 4 6 6 6 3 5 2 1 2 5
23 24 26 28 29 31 33 34 34 30 28 29 25 24 22 18 17 21 19 17 13 12 13 29 30 11 5 10 8 15 13 4 6 3 2 1 3 4 6 5 2 4 3 2 3 3 3
22 23 25 27 29 31 32 33 34 31 30 25 26 25 22 18 18 17 17 18 21 18 21 16 20 9 16 9 9 19 13 6 5 3 5 8 6 3 5 4 1 4 2 6 6 2 1
22 22 24 25 27 29 31 32 33 32 30 28 26 28 20 18 12 17 20 21 21 22 20 19 18 12 6 7 13 15 4 11 10 10 8 6 7 6 5 5 3 3 1 2 5 4 3
21 21 22 24 26 27 28 30 31 32 29 28 25 28 24 19 16 16 19 18 17 19 17 18 13 10 5 11 5 12 7 10 10 7 5 5 4 3 2 2 2 3 2 4 3 4 1
20 20 21 23 24 26 28 28 29 30 29 27 23 22 21 21 14 11 26 27 34 20 7 9 6 9 4 3 5 9 4 4 5 7 4 3 2 3 2 0 1 2 3 3 4 5 4
21 20 20 21 23 24 26 26 26 28 27 26 22 23 21 18 11 6 8 3 4 8 14 12 13 19 7 8 7 8 4 5 3 4 4 2 2 2 7 8 5 6 5 6 6 8 4
22 21 20 20 21 23 23 23 24 23 24 22 20 18 18 17 16 5 4 5 5 6 10 19 16 13 5 6 6 9 7 1 2 5 3 1 5 6 6 4 4 4 4 5 2 2 4
20 22 21 20 20 21 22 22 21 21 21 20 18 16 14 9 13 13 11 9 4 3 6 7 5 5 4 6 6 10 11 6 5 5 2 4 7 4 2 0 3 5 4 5 4 8 9
21 20 21 21 20 20 20 21 20 20 19 20 17 15 13 14 4 1 3 0 3 3 4 9 5 3 5 4 3 5 6 4 3 5 6 6 4 1 1 3 2 4 4 4 7 6 3
21 21 20 21 20 20 20 19 19 19 18 18 17 14 12 9 4 3 1 2 5 2 5 7 4 1 6 5 1 6 2 4 7 5 3 3 4 2 3 3 3 4 4 6 8 6 7
17 19 20 20 21 20 20 19 18 17 17 16 15 14 13 2 2 2 4 5 2 2 6 4 1 2 3 7 3 1 1 2 2 1 1 5 3 2 4 2 3 8 6 10 1 3 4
14 18 19 20 20 21 21 20 19 18 16 16 10 7 6 4 2 5 5 3 3 6 2 2 3 2 6 3 4 4 2 3 1 2 2 4 4 4 1 5 3 4 5 2 2 2 4
17 15 17 19 19 20 21 22 22 21 18 17 5 1 1 2 2 2 2 1 10 1 3 0 3 4 3 2 2 3 4 4 3 4 2 2 2 6 8 3 3 2 3 1 3 3 4
15 15 16 18 19 18 20 22 22 22 20 18 4 2 1 2 3 2 2 6 2 3 2 3 4 2 3 2 3 3 3 2 3 4 2 3 2 3 4 1 2 0 0 3 1 4 3
15 16 16 17 18 19 19 21 23 23 21 13 2 2 2 5 3 2 4 6 3 3 1 2 2 3 2 3 3 3 1 3 1 2 5 2 2 3 5 1 1 4 1 2 2 3 4
16 14 17 15 17 19 20 21 23 25 25 15 3 2 1 9 3 1 3 4 4 3 3 3 2 1 3 2 5 4 4 4 1 3 4 2 0 2 2 6 8 3 2 2 2 2 2
18 15 15 15 16 18 19 21 22 24 31 5 2 2 2 5 3 2 2 2 2 6 4 2 3 2 3 0 2 2 0 1 3 1 1 3 2 4 6 6 4 6 6 5 2 1 2
17 16 15 14 15 17 18 19 20 20 21 5 3 1 2 0 2 3 2 1 3 4 4 4 4 3 1 2 3 2 3 5 5 4 1 1 1 3 2 2 3 4 5 6 4 3 6
16 18 15 14 14 16 17 18 19 18 17 4 3 1 4 2 2 5 3 2 2 1 2 3 2 2 3 4 3 1 3 3 3 4 4 1 2 5 4 2 4 4 6 9 9 3 3
15 16 15 14 14 15 17 18 17 16 14 2 2 1 1 1 1 2 1 3 4 3 3 3 3 6 3 2 5 4 2 5 6 7 3 2 4 4 8 14 14 13 13 12 14 15 7
15 15 15 14 12 14 17 20 17 12 15 1 3 1 2 2 1 2 3 5 5 5 2 4 4 1 3 3 5 4 3 3 2 6 3 4 4 6 8 14 12 11 14 18 19 18 18
14 14 16 14 11 12 16 18 12 7 6 2 1 1 2 2 3 2 1 2 1 3 5 1 5 5 6 5 6 6 5 7 6 3 7 6 2 5 5 9 10 9 12 19 13 12 19
14 14 15 14 11 9 12 12 10 9 5 2 2 2 1 2 3 4 4 0 4 5 3 1 2 2 1 4 8 8 7 8 8 8 5 3 2 3 5 7 2 6 1 1 5 16 15
16 14 13 14 11 8 9 9 9 7 6 3 1 1 2 3 3 5 4 4 4 3 3 6 6 0 3 4 3 5 1 2 5 7 7 7 3 3 2 3 10 9 2 3 3 4 8
17 16 14 14 13 8 7 7 7 7 6 2 1 1 2 3 4 2 2 6 4 5 4 5 3 3 1 2 2 3 3 3 3 3 2 4 6 2 2 2 5 2 2 1 1 5 3
17 17 15 15 13 11 10 8 9 7 5 2 1 1 1 2 3 3 4 3 5 2 2 2 4 3 2 2 3 4 4 2 3 4 5 4 5 10 7 5 8 4 6 3 2 5 4
15 16 16 15 14 14 13 12 11 10 6 1 1 0 1 2 4 4 3 4 2 2 3 2 2 1 3 3 2 4 3 4 2 5 6 8 7 5 5 5 10 7 5 7 5 1 5
17 15 17 16 15 15 15 15 14 13 12 6 2 1 1 2 4 1 5 7 3 2 3 5 1 1 4 3 3 2 2 2 4 4 3 4 7 3 9 7 5 9 8 9 6 5 6
Wind_Direction
17 16 13 10 10 7 6 8 8 9 16 16 24 31 30 40 12 49 77 90 86 90 81 109 97 85 56 72 46 336 331 149 168 235 158 170 186 169 152 121 147 251 122 101 124 210 239
20 16 12 11 9 9 10 11 12 12 18 20 26 28 36 50 40 48 65 72 71 89 98 111 95 90 57 73 333 338 341 173 119 219 92 326 24 26 74 116 249 37 85 257 186 259 271
21 19 14 11 9 10 13 12 13 15 18 27 24 32 47 54 51 39 64 65 70 109 110 112 121 82 48 47 347 325 314 77 28 71 86 25 3 348 124 114 53 116 248 196 216 192 248
16 19 16 13 13 13 14 13 13 18 21 26 27 32 51 83 66 67 69 70 69 87 87 83 93 80 52 326 319 301 69 86 73 60 64 38 31 53 43 103 154 213 341 258 83 152 121
11 16 17 10 12 14 16 13 13 17 21 25 34 42 66 70 73 71 81 76 65 89 88 86 58 91 63 305 357 300 277 97 95 84 88 78 39 84 124 203 140 201 227 189 179 170 326
12 14 14 11 12 13 15 18 14 19 20 25 31 38 50 60 59 80 101 86 60 31 69 77 108 76 355 340 308 322 49 99 97 136 117 69 73 137 178 170 153 310 217 153 226 173 195
9 12 12 14 9 12 15 17 19 18 21 23 22 32 30 24 24 14 332 324 21 38 38 54 67 84 58 310 278 32 359 116 167 234 110 50 90 55 80 30 9 332 356 316 317 61 14
5 8 10 13 13 11 15 17 18 20 19 21 24 19 33 51 32 351 23 79 54 146 60 33 55 63 46 301 45 26 306 174 263 81 117 94 77 55 46 21 4 347 323 286 36 104 262
9 3 6 11 10 11 12 16 18 17 17 14 18 20 13 344 339 62 72 58 73 171 79 43 31 20 309 320 35 12 2 329 41 70 152 84 90 115 322 39 293 210 286 3 319 318 266
8 6 3 4 7 9 11 10 14 16 15 11 12 12 7 331 324 255 51 53 286 312 81 8 33 32 312 275 56 23 350 2 29 51 45 85 125 4 207 280 331 286 34 318 314 354 288
9 5 3 359 2 2 6 9 6 7 7 7 360 358 355 25 333 55 20 280 295 236 71 340 0 177 280 55 234 33 317 315 45 84 288 79 160 198 268 35 341 24 354 302 285 286 319
3 6 2 358 359 358 0 2 2 360 355 350 348 342 332 285 240 71 311 284 239 33 61 335 24 312 80 55 50 207 31 94 356 311 12 99 30 311 2 341 284 319 279 251 166 272 268
357 358 1 1 357 355 353 352 353 354 351 342 330 331 337 295 356 322 320 256 55 52 234 53 59 89 79 58 82 25 8 84 50 65 159 164 180 138 246 240 185 241 287 301 327 246 233
354 354 358 359 360 356 351 347 345 346 348 344 351 236 317 0 320 328 261 77 61 30 118 95 184 178 74 323 107 169 226 148 134 296 273 189 257 191 159 279 331 320 317 277 275 329 291
351 350 349 359 356 357 351 346 342 340 343 337 309 190 202 85 179 189 280 57 97 116 216 152 216 197 127 117 296 262 47 52 48 8 342 321 121 104 195 5 320 294 274 29 3 220 281
347 345 344 351 354 352 352 348 342 338 338 338 261 227 83 112 189 254 66 92 87 65 133 268 5 304 127 99 229 242 236 91 116 38 337 54 249 155 108 177 39 12 40 203 120 321 289
345 346 345 346 348 349 348 349 346 340 336 335 244 259 161 146 171 46 60 89 131 156 238 301 10 148 50 70 353 20 33 109 48 76 336 323 342 135 161 203 175 156 181 192 323 261 312
339 342 343 341 341 344 349 350 350 347 341 309 294 11 172 147 62 60 22 58 328 154 185 226 280 349 358 315 167 223 335 73 90 142 296 65 284 266 229 97 111 178 185 166 175 86 249
336 338 337 337 336 339 341 347 350 351 3 322 343 351 217 89 87 95 181 95 308 188 196 195 216 267 200 221 250 215 163 127 169 190 349 121 242 300 146 115 174 228 222 225 234 68 220
331 330 334 332 332 333 337 339 346 347 353 332 301 9 337 50 277 119 155 166 159 306 295 277 314 232 229 223 179 342 212 139 157 191 106 289 261 234 227 298 340 244 221 206 194 203 252
320 322 326 328 330 329 330 331 334 338 344 8 345 87 126 333 92 344 328 155 178 204 226 257 244 256 278 265 192 205 136 167 180 151 200 225 252 249 265 272 273 263 251 239 213 218 222
312 317 320 323 326 327 327 327 323 329 335 240 326 275 223 108 166 282 151 213 219 149 239 208 247 299 265 282 4 332 32 232 278 154 225 192 274 301 277 261 251 254 248 239 237 236 237
302 307 312 316 319 323 330 336 351 358 349 298 116 176 309 152 163 205 272 322 268 61 186 279 346 342 279 314 355 330 319 297 277 256 195 184 216 350 272 338 321 287 251 226 234 227 227
293 295 303 306 309 313 327 333 345 357 352 304 33 306 255 262 213 221 153 258 246 214 288 23 184 250 109 305 292 257 235 253 248 251 219 288 221 192 273 305 265 232 172 348 248 238 228
288 286 290 295 296 294 310 319 325 352 345 301 21 302 301 271 176 261 217 225 229 216 212 243 249 236 21 310 296 306 194 235 230 211 217 195 230 273 243 300 281 291 165 179 211 289 237
282 280 284 284 288 279 275 292 292 329 349 305 3 325 296 314 223 222 187 198 224 228 228 202 107 47 13 255 271 249 258 330 178 140 323 214 207 232 322 209 262 240 163 161 321 275 173
280 279 279 282 281 275 256 258 254 270 321 310 12 331 282 264 238 144 206 186 181 276 286 122 149 170 233 223 225 223 244 111 252 209 168 180 211 221 227 260 276 222 154 155 191 252 176
273 277 271 278 281 276 250 244 245 235 243 285 296 224 305 260 276 218 206 186 110 231 209 163 83 230 153 229 225 237 222 211 290 237 174 180 172 192 187 222 259 151 110 177 202 158 177
273 269 270 275 279 274 261 235 232 231 221 197 255 169 168 217 262 285 276 274 237 195 179 188 144 88 223 190 243 294 287 229 210 258 169 240 202 210 191 221 226 189 214 211 182 185 206